Home   Weather   Port-au-Prince   Past weeks

Flag for Haiti Past Weather in Port-au-Prince, Haiti — Yesterday and Last 2 Weeks

Now
86 °F

Passing clouds.


Feels Like: 93 °F
Forecast: 72 / 87 °F
Wind: 12 mph from East

Location: Port-Au-Prince / Aeroport International

Current Time: May 28, 2017 at 11:11:13 am

Latest Report: May 28, 2017 at 10:00 am


Visibility: 6 mi

Pressure: 29.98 "Hg

Humidity: 66%

Dew Point: 73 °F

Location of Port-au-PrinceLocation

Past Weather in Port-au-Prince — Graph

°F

Port-au-Prince Temperature Yesterday

Maximum temperature yesterday: 91 °F (at 1:00 pm)
Minimum temperature yesterday: 81 °F (at 8:00 am)
Average temperature yesterday: 87 °F

High & Low Weather Summary for the Past Weeks

 TemperatureHumidityPressure
High95 °F (May 22, 2:00 pm)94% (May 16, 5:00 pm)30.01 "Hg (May 16, 5:00 pm)
Low73 °F (May 20, 7:00 am)44% (May 22, 2:00 pm)29.83 "Hg (May 15, 4:00 pm)
Average85 °F68%29.91 "Hg
* Reported May 13 10:00 am — May 28 10:00 am, Port-au-Prince. Weather by CustomWeather, © 2017

Note: Actual official high and low records may vary slightly from our data, if they occured in-between our weather recording intervals... More about our weather records

Advertising

Port-au-Prince Weather History for the Previous 24 Hours

Scroll right to see more
 ConditionsComfort  
Time TempWeatherWind HumidityBarometerVisibility
10:00 am
Sun, May 28
86 °FPassing clouds.12 mph66%29.98 "Hg6 mi
9:00 am84 °FPassing clouds.14 mph70%29.95 "Hg6 mi
8:00 am82 °FPassing clouds.8 mph74%29.95 "Hg6 mi
7:00 am79 °FPassing clouds.7 mph89%29.95 "Hg6 mi
6:00 am79 °FPassing clouds.8 mph89%29.95 "Hg5 mi
10:00 pm
Sat, May 27
82 °FPassing clouds.12 mph79%29.98 "Hg5 mi
8:00 pm82 °FPassing clouds.8 mph79%29.95 "Hg5 mi
7:00 pm84 °FPassing clouds.7 mph70%29.95 "Hg6 mi
6:00 pm86 °FPassing clouds.15 mph70%29.92 "Hg6 mi
5:00 pm88 °FScattered clouds.15 mph62%29.92 "HgN/A
4:00 pm88 °FPassing clouds.17 mph62%29.92 "HgN/A
3:00 pm88 °FScattered clouds.13 mph62%29.95 "HgN/A
2:00 pm90 °FScattered clouds.16 mph59%29.95 "HgN/A
1:00 pm91 °FScattered clouds.12 mph52%29.98 "HgN/A
12:00 pm90 °FPassing clouds.7 mph52%29.98 "HgN/A
11:00 am90 °FPassing clouds.9 mph55%30.01 "HgN/A
Weather by CustomWeather, © 2017

See weather overviewHow to use our weather pages